Fort Atkinson, Wisconsin, United States (53538)
Lat: 42.93N, Lon: 88.84W
Wx Zone: WIZ064
Local Info
Past Weather Observations for Today

NOTE: This archive is for the closest National Weather Service station to Fort Atkinson. Information may differ from the station used for current weather conditions.

Click here for Long-term Archive

Time Weather Temperature Dewpoint Humidity Pressure Winds Precip Visibility
16:15
Overcast
16°F / -9°C 7°F / -14°C 67% 29.89 in
(1012 mb)
NW 16.1 mph
(NW 26 kph)
- 10SM
15:55
Overcast
16°F / -9°C 7°F / -14°C 67% 29.89 in
(1012 mb)
NW 10.4 mph
(NW 17 kph)
- 10SM
15:35
Overcast
16°F / -9°C 9°F / -13°C 73% 29.89 in
(1012 mb)
NW 10.4 mph
(NW 17 kph)
- 7SM
15:15
Overcast
16°F / -9°C 7°F / -14°C 67% 29.86 in
(1011 mb)
NW 15 mph
(NW 24 kph)
- 7SM
14:55
Mostly Cloudy
16°F / -9°C 7°F / -14°C 67% 29.86 in
(1011 mb)
NW 12.7 mph
(NW 20 kph)
- 10SM
14:35
Mostly Cloudy
16°F / -9°C 7°F / -14°C 67% 29.86 in
(1011 mb)
NW 12.7 mph
(NW 20 kph)
- 10SM
14:15
Mostly Cloudy
16°F / -9°C 7°F / -14°C 67% 29.86 in
(1011 mb)
NW 16.1 mph
(NW 26 kph)
- 10SM
13:55
Overcast
16°F / -9°C 7°F / -14°C 67% 29.86 in
(1011 mb)
NW 13.8 mph
(NW 22 kph)
- 7SM
13:35
Overcast
16°F / -9°C 7°F / -14°C 67% 29.83 in
(1010 mb)
NW 16.1 mph
(NW 26 kph)
- 10SM
13:15
Overcast
16°F / -9°C 7°F / -14°C 67% 29.83 in
(1010 mb)
NW 18.4 mph
(NW 30 kph)
- 10SM
12:55
Overcast
16°F / -9°C 7°F / -14°C 67% 29.86 in
(1011 mb)
NW 16.1 mph
(NW 26 kph)
- 10SM
12:35
Overcast
16°F / -9°C 7°F / -14°C 67% 29.83 in
(1010 mb)
NW 11.5 mph
(NW 19 kph)
- 10SM
12:15
Overcast
14°F / -10°C 7°F / -14°C 73% 29.83 in
(1010 mb)
NW 17.3 mph
(NW 28 kph)
- 10SM
11:55
Mostly Cloudy
14°F / -10°C 7°F / -14°C 73% 29.86 in
(1011 mb)
NW 13.8 mph
(NW 22 kph)
- 10SM
11:35
Mostly Cloudy
14°F / -10°C 7°F / -14°C 73% 29.86 in
(1011 mb)
NW 15 mph
(NW 24 kph)
- 10SM
11:15
Mostly Cloudy
16°F / -9°C 7°F / -14°C 67% 29.86 in
(1011 mb)
NW 16.1 mph
(NW 26 kph)
- 10SM
10:55
Partly Cloudy
14°F / -10°C 7°F / -14°C 73% 29.86 in
(1011 mb)
NW 13.8 mph
(NW 22 kph)
- 10SM
10:35
Mostly Cloudy
14°F / -10°C 7°F / -14°C 73% 29.86 in
(1011 mb)
NW 11.5 mph
(NW 19 kph)
- 10SM
10:15
Overcast
14°F / -10°C 7°F / -14°C 73% 29.86 in
(1011 mb)
NW 16.1 mph
(NW 26 kph)
- 7SM
09:55
Overcast
12°F / -11°C 7°F / -14°C 79% 29.83 in
(1010 mb)
NNW 11.5 mph
(NNW 19 kph)
- 7SM
09:35
Overcast
12°F / -11°C 7°F / -14°C 79% 29.83 in
(1010 mb)
NW 16.1 mph
(NW 26 kph)
- 7SM
09:15
Mostly Cloudy
12°F / -11°C 5°F / -15°C 73% 29.83 in
(1010 mb)
NW 13.8 mph
(NW 22 kph)
- 10SM
08:55
Partly Cloudy
12°F / -11°C 5°F / -15°C 73% 29.83 in
(1010 mb)
NW 13.8 mph
(NW 22 kph)
- 10SM
08:35
Partly Cloudy
10°F / -12°C 5°F / -15°C 79% 29.83 in
(1010 mb)
NW 13.8 mph
(NW 22 kph)
- 10SM
08:15
Partly Cloudy
10°F / -12°C 5°F / -15°C 79% 29.83 in
(1010 mb)
NW 12.7 mph
(NW 20 kph)
- 10SM
07:55
Partly Cloudy
10°F / -12°C 5°F / -15°C 79% 29.83 in
(1010 mb)
NNW 13.8 mph
(NNW 22 kph)
- 10SM
07:35
Partly Cloudy
Light Snow
10°F / -12°C 5°F / -15°C 79% 29.83 in
(1010 mb)
NW 11.5 mph
(NW 19 kph)
- 10SM
07:15
Mostly Cloudy
Light Snow
10°F / -12°C 7°F / -14°C 85% 29.83 in
(1010 mb)
NW 13.8 mph
(NW 22 kph)
- 7SM
06:55
Overcast
Light Snow
10°F / -12°C 7°F / -14°C 85% 29.83 in
(1010 mb)
NW 12.7 mph
(NW 20 kph)
- 7SM
06:35
Overcast
Light Snow
10°F / -12°C 7°F / -14°C 85% 29.8 in
(1009 mb)
NNW 12.7 mph
(NNW 20 kph)
- 10SM
06:15
Overcast
10°F / -12°C 7°F / -14°C 85% 29.8 in
(1009 mb)
NW 12.7 mph
(NW 20 kph)
- 10SM
05:55
Overcast
12°F / -11°C 7°F / -14°C 79% 29.8 in
(1009 mb)
NW 12.7 mph
(NW 20 kph)
- 10SM
05:35
Overcast
Light Snow
12°F / -11°C 7°F / -14°C 79% 29.8 in
(1009 mb)
NNW 11.5 mph
(NNW 19 kph)
- 5SM
05:15
Overcast
Light Snow
12°F / -11°C 9°F / -13°C 85% 29.8 in
(1009 mb)
NW 10.4 mph
(NW 17 kph)
- 5SM
04:55
Overcast
Light Snow
12°F / -11°C 9°F / -13°C 85% 29.8 in
(1009 mb)
NW 12.7 mph
(NW 20 kph)
- 7SM
04:35
Mostly Cloudy
Light Snow
12°F / -11°C 9°F / -13°C 85% 29.77 in
(1008 mb)
NW 13.8 mph
(NW 22 kph)
- 10SM
04:15
Partly Cloudy
Light Snow
12°F / -11°C 9°F / -13°C 85% 29.77 in
(1008 mb)
NNW 10.4 mph
(NNW 17 kph)
- 10SM
03:55
Overcast
Light Snow
12°F / -11°C 10°F / -12°C 92% 29.77 in
(1008 mb)
NNW 9.2 mph
(NNW 15 kph)
- 7SM
03:35
Mostly Cloudy
Light Snow
14°F / -10°C 9°F / -13°C 79% 29.77 in
(1008 mb)
NW 11.5 mph
(NW 19 kph)
- 10SM
03:15
Partly Cloudy
Light Snow
14°F / -10°C 9°F / -13°C 79% 29.77 in
(1008 mb)
NNW 13.8 mph
(NNW 22 kph)
- 10SM
02:55
Mostly Cloudy
Light Snow
14°F / -10°C 10°F / -12°C 85% 29.77 in
(1008 mb)
NNW 11.5 mph
(NNW 19 kph)
- 10SM
02:35
Overcast
Light Snow
14°F / -10°C 12°F / -11°C 92% 29.77 in
(1008 mb)
NNW 11.5 mph
(NNW 19 kph)
- 5SM
02:15
Overcast
Light Snow
16°F / -9°C 14°F / -10°C 93% 29.77 in
(1008 mb)
NW 15 mph
(NW 24 kph)
- 2 1/2SM
01:55
Overcast
Light Snow
16°F / -9°C 12°F / -11°C 86% 29.77 in
(1008 mb)
NW 11.5 mph
(NW 19 kph)
- 10SM
01:35
Overcast
Light Snow
16°F / -9°C 14°F / -10°C 93% 29.74 in
(1007 mb)
NNW 10.4 mph
(NNW 17 kph)
- 5SM
01:15
Overcast
Light Snow
16°F / -9°C 14°F / -10°C 93% 29.74 in
(1007 mb)
NW 11.5 mph
(NW 19 kph)
- 7SM
00:55
Overcast
Light Snow
16°F / -9°C 14°F / -10°C 93% 29.74 in
(1007 mb)
NW 12.7 mph
(NW 20 kph)
- 5SM
00:35
Overcast
Light Snow
16°F / -9°C 14°F / -10°C 93% 29.74 in
(1007 mb)
NW 9.2 mph
(NW 15 kph)
- 5SM
00:15
Overcast
Light Snow
16°F / -9°C 14°F / -10°C 93% 29.74 in
(1007 mb)
NW 9.2 mph
(NW 15 kph)
- 4SM
Time Weather Temperature Dewpoint Humidity Pressure Winds Precip Visibility


Weather for websites

WeatherForYou.com, LLC is not responsible for any damages or problems caused by this service. Current weather conditions are obtained from the closest station including government and personal stations which may have varying degrees of accuracy. Weather forecasts are derived from the NOAA NDFD. Like all things, this site belongs to Jesus Christ... He just trusts us to maintain it. If you have any questions or comments email webmaster@weatherforyou.com

Copyright © 2016, WeatherForYou.com LLC. All rights reserved.